| time (UTC) | temp F | wind direction | speed knots | gust knots | rain 1hr in | rain 24hr in | rain mn in | humidity % | barometer mb |
| 20260902174053 | 68 | 163 | 1.7 | 0.0 | 0.00 | 0.00 | 0.00 | 80 | 1014.9 |
| 20260902173552 | 68 | 157 | 2.6 | 0.0 | 0.00 | 0.00 | 0.00 | 82 | 1014.9 |
| 20260902173051 | 67 | 150 | 1.7 | 0.0 | 0.00 | 0.00 | 0.00 | 83 | 1014.9 |
| 20260902172549 | 67 | 208 | 1.7 | 0.0 | 0.00 | 0.00 | 0.00 | 81 | 1014.8 |
| 20260902172051 | 67 | 230 | 1.7 | 0.0 | 0.00 | 0.00 | 0.00 | 82 | 1014.8 |
| 20260902171603 | 67 | 224 | 1.7 | 0.0 | 0.00 | 0.00 | 0.00 | 83 | 1014.8 |
| 20260902171048 | 67 | 183 | 1.7 | 0.0 | 0.00 | 0.00 | 0.00 | 82 | 1014.7 |
| 20260902170549 | 67 | 265 | 1.7 | 0.0 | 0.00 | 0.00 | 0.00 | 82 | 1014.7 |
| 20260902170048 | 67 | 172 | 1.7 | 0.0 | 0.00 | 0.00 | 0.00 | 83 | 1014.7 |
| 20260902165546 | 66 | 196 | 0.9 | 0.0 | 0.00 | 0.00 | 0.00 | 85 | 1014.6 |
| 20260902165045 | 66 | 115 | 0.9 | 0.0 | 0.00 | 0.00 | 0.00 | 86 | 1014.6 |
| 20260902164543 | 65 | 92 | 0.9 | 0.0 | 0.00 | 0.00 | 0.00 | 86 | 1014.6 |
| 20260902164045 | 65 | 189 | 1.7 | 0.0 | 0.00 | 0.00 | 0.00 | 87 | 1014.8 |
| 20260902163540 | 64 | 202 | 1.7 | 0.0 | 0.00 | 0.00 | 0.00 | 88 | 1014.8 |
| 20260902163040 | 64 | 186 | 1.7 | 0.0 | 0.00 | 0.00 | 0.00 | 89 | 1014.8 |
| 20260902162538 | 64 | 185 | 1.7 | 0.0 | 0.00 | 0.00 | 0.00 | 89 | 1014.7 |
| 20260902162038 | 63 | 188 | 1.7 | 0.0 | 0.00 | 0.00 | 0.00 | 90 | 1014.7 |
| 20260902161537 | 63 | 173 | 0.9 | 0.0 | 0.00 | 0.00 | 0.00 | 90 | 1014.7 |
| 20260902161037 | 63 | 188 | 0.9 | 0.0 | 0.00 | 0.00 | 0.00 | 90 | 1014.7 |
| 20260902160536 | 63 | 149 | 0.9 | 0.0 | 0.00 | 0.00 | 0.00 | 90 | 1014.7 |
| 20260902160046 | 63 | 175 | 0.9 | 0.0 | 0.00 | 0.00 | 0.00 | 91 | 1014.7 |
| 20260902155536 | 63 | 187 | 0.9 | 0.0 | 0.00 | 0.00 | 0.00 | 91 | 1014.5 |
| 20260902155040 | 63 | 44 | 0.9 | 0.0 | 0.00 | 0.00 | 0.00 | 92 | 1014.5 |
| 20260902154535 | 62 | 147 | 0.9 | 0.0 | 0.00 | 0.00 | 0.00 | 92 | 1014.5 |
| 20260902154034 | 62 | 130 | 0.9 | 0.0 | 0.00 | 0.00 | 0.00 | 93 | 1014.5 |
| 20260902153533 | 62 | 126 | 0.9 | 0.0 | 0.00 | 0.00 | 0.00 | 93 | 1014.5 |
| 20260902153034 | 62 | 176 | 0.9 | 0.0 | 0.00 | 0.00 | 0.00 | 94 | 1014.5 |
| 20260902152532 | 62 | 138 | 0.9 | 0.0 | 0.00 | 0.00 | 0.00 | 94 | 1014.5 |
| 20260902152032 | 62 | 188 | 0.9 | 0.0 | 0.00 | 0.00 | 0.00 | 94 | 1014.5 |
| 20260902151531 | 62 | 165 | 0.9 | 0.0 | 0.00 | 0.00 | 0.00 | 95 | 1014.5 |
| 20260902151034 | 62 | 200 | 0.9 | 0.0 | 0.00 | 0.00 | 0.00 | 95 | 1014.6 |
| 20260902150530 | 61 | 169 | 1.7 | 0.0 | 0.00 | 0.00 | 0.00 | 95 | 1014.6 |
| 20260902150029 | 61 | 205 | 0.9 | 0.0 | 0.00 | 0.00 | 0.00 | 95 | 1014.6 |
| 20260902145529 | 61 | 200 | 0.9 | 0.0 | 0.00 | 0.00 | 0.00 | 96 | 1014.6 |
| 20260902145031 | 61 | 169 | 0.9 | 0.0 | 0.00 | 0.00 | 0.00 | 96 | 1014.6 |
| 20260902144528 | 61 | 197 | 0.9 | 0.0 | 0.00 | 0.00 | 0.00 | 96 | 1014.6 |
| 20260902144027 | 61 | 202 | 0.9 | 0.0 | 0.00 | 0.00 | 0.00 | 96 | 1014.5 |
| 20260902143527 | 61 | 159 | 0.9 | 0.0 | 0.00 | 0.00 | 0.00 | 96 | 1014.5 |
| 20260902143027 | 60 | 219 | 0.9 | 0.0 | 0.00 | 0.00 | 0.00 | 96 | 1014.5 |
| 20260902142526 | 60 | 172 | 0.0 | 0.0 | 0.00 | 0.00 | 0.00 | 96 | 1014.3 |
| 20260902142026 | 60 | 144 | 0.0 | 0.0 | 0.00 | 0.00 | 0.00 | 96 | 1014.3 |
| 20260902141526 | 60 | 65 | 0.0 | 0.0 | 0.00 | 0.00 | 0.00 | 96 | 1014.3 |
| 20260902141027 | 59 | 65 | 0.0 | 0.0 | 0.00 | 0.00 | 0.00 | 96 | 1014.2 |
| 20260902140526 | 59 | 65 | 0.0 | 0.0 | 0.00 | 0.00 | 0.00 | 96 | 1014.2 |
| 20260902140034 | 59 | 65 | 0.0 | 0.0 | 0.00 | 0.00 | 0.00 | 96 | 1014.2 |
| 20260902135524 | 58 | 65 | 0.0 | 0.0 | 0.00 | 0.00 | 0.00 | 96 | 1014.1 |
| 20260902135024 | 58 | 65 | 0.0 | 0.0 | 0.00 | 0.00 | 0.00 | 96 | 1014.1 |
| 20260902134524 | 58 | 65 | 0.0 | 0.0 | 0.00 | 0.00 | 0.00 | 95 | 1014.1 |
| 20260902134023 | 58 | 65 | 0.0 | 0.0 | 0.00 | 0.00 | 0.00 | 95 | 1014.0 |
| 20260902133523 | 58 | 65 | 0.0 | 0.0 | 0.00 | 0.00 | 0.00 | 96 | 1014.0 |
| 20260902133023 | 58 | 65 | 0.0 | 0.0 | 0.00 | 0.00 | 0.00 | 95 | 1014.0 |
| 20260902132522 | 58 | 65 | 0.0 | 0.0 | 0.00 | 0.00 | 0.00 | 95 | 1013.9 |
| 20260902132022 | 59 | 65 | 0.0 | 0.0 | 0.00 | 0.00 | 0.00 | 95 | 1013.9 |
| 20260902131522 | 59 | 65 | 0.9 | 0.0 | 0.00 | 0.00 | 0.00 | 96 | 1013.9 |
| 20260902131026 | 59 | 65 | 0.9 | 0.0 | 0.00 | 0.00 | 0.00 | 96 | 1013.7 |
| 20260902130523 | 59 | 63 | 0.9 | 0.0 | 0.00 | 0.00 | 0.00 | 96 | 1013.7 |
| 20260902130022 | 59 | 79 | 0.9 | 0.0 | 0.00 | 0.00 | 0.00 | 96 | 1013.7 |
| 20260902125522 | 58 | 109 | 0.9 | 0.0 | 0.00 | 0.00 | 0.00 | 96 | 1013.5 |
| 20260902125023 | 58 | 57 | 0.9 | 0.0 | 0.00 | 0.00 | 0.00 | 96 | 1013.5 |
| 20260902124522 | 58 | 36 | 1.7 | 0.0 | 0.00 | 0.00 | 0.00 | 96 | 1013.5 |
| 20260902124021 | 58 | 35 | 1.7 | 0.0 | 0.00 | 0.00 | 0.00 | 96 | 1013.7 |
| 20260902123520 | 58 | 30 | 0.9 | 0.0 | 0.00 | 0.00 | 0.00 | 95 | 1013.7 |
| 20260902123025 | 58 | 37 | 0.9 | 0.0 | 0.00 | 0.00 | 0.00 | 95 | 1013.7 |
| 20260902122520 | 58 | 55 | 0.9 | 0.0 | 0.00 | 0.00 | 0.00 | 95 | 1013.7 |
| 20260902122019 | 58 | 31 | 1.7 | 0.0 | 0.00 | 0.00 | 0.00 | 95 | 1013.7 |
| 20260902121519 | 58 | 48 | 0.9 | 0.0 | 0.00 | 0.00 | 0.00 | 95 | 1013.7 |
| 20260902121019 | 58 | 55 | 0.0 | 0.0 | 0.00 | 0.00 | 0.00 | 95 | 1013.8 |
| 20260902120519 | 58 | 195 | 0.0 | 0.0 | 0.00 | 0.00 | 0.00 | 95 | 1013.8 |
| 20260902120019 | 58 | 195 | 0.0 | 0.0 | 0.00 | 0.00 | 0.00 | 95 | 1013.8 |
| 20260902115522 | 58 | 195 | 0.0 | 0.0 | 0.00 | 0.00 | 0.00 | 95 | 1013.8 |
| 20260902115018 | 58 | 195 | 0.0 | 0.0 | 0.00 | 0.00 | 0.00 | 95 | 1013.8 |
| 20260902114518 | 58 | 195 | 0.0 | 0.0 | 0.00 | 0.00 | 0.00 | 95 | 1013.8 |
| 20260902114023 | 59 | 195 | 0.0 | 0.0 | 0.00 | 0.00 | 0.00 | 95 | 1013.7 |
| 20260902113517 | 59 | 195 | 0.0 | 0.0 | 0.00 | 0.00 | 0.00 | 95 | 1013.7 |
| 20260902113017 | 59 | 195 | 0.0 | 0.0 | 0.00 | 0.00 | 0.00 | 95 | 1013.7 |
| 20260902112517 | 59 | 195 | 0.0 | 0.0 | 0.00 | 0.00 | 0.00 | 95 | 1013.9 |
| 20260902112017 | 59 | 195 | 0.0 | 0.0 | 0.00 | 0.00 | 0.00 | 95 | 1013.9 |
| 20260902111534 | 59 | 195 | 0.0 | 0.0 | 0.00 | 0.00 | 0.00 | 95 | 1013.9 |
| 20260902111016 | 59 | 195 | 0.0 | 0.0 | 0.00 | 0.00 | 0.00 | 95 | 1013.6 |
| 20260902110516 | 59 | 195 | 0.0 | 0.0 | 0.00 | 0.00 | 0.00 | 95 | 1013.6 |
| 20260902110043 | 59 | 195 | 0.0 | 0.0 | 0.00 | 0.00 | 0.00 | 94 | 1013.6 |
| 20260902105515 | 59 | 195 | 0.0 | 0.0 | 0.00 | 0.00 | 0.00 | 95 | 1013.7 |
| 20260902105015 | 59 | 195 | 0.0 | 0.0 | 0.00 | 0.00 | 0.00 | 95 | 1013.7 |
| 20260902104520 | 59 | 195 | 0.0 | 0.0 | 0.00 | 0.00 | 0.00 | 95 | 1013.7 |
| 20260902104016 | 59 | 195 | 0.0 | 0.0 | 0.00 | 0.00 | 0.00 | 94 | 1013.7 |
| 20260902103514 | 58 | 195 | 0.0 | 0.0 | 0.00 | 0.00 | 0.00 | 94 | 1013.7 |
| 20260902103014 | 58 | 195 | 0.0 | 0.0 | 0.00 | 0.00 | 0.00 | 94 | 1013.7 |
| 20260902102518 | 58 | 195 | 0.0 | 0.0 | 0.00 | 0.00 | 0.00 | 94 | 1013.7 |
| 20260902102013 | 58 | 195 | 0.0 | 0.0 | 0.00 | 0.00 | 0.00 | 94 | 1013.7 |
| 20260902101513 | 59 | 195 | 0.0 | 0.0 | 0.00 | 0.00 | 0.00 | 94 | 1013.7 |
| 20260902101013 | 59 | 195 | 0.0 | 0.0 | 0.00 | 0.00 | 0.00 | 94 | 1013.7 |
| 20260902100517 | 59 | 195 | 0.0 | 0.0 | 0.00 | 0.00 | 0.00 | 94 | 1013.7 |
| 20260902100015 | 59 | 195 | 0.0 | 0.0 | 0.00 | 0.00 | 0.00 | 94 | 1013.7 |
| 20260902095512 | 59 | 195 | 0.0 | 0.0 | 0.00 | 0.00 | 0.00 | 94 | 1013.7 |
| 20260902095012 | 59 | 195 | 0.0 | 0.0 | 0.00 | 0.00 | 0.00 | 93 | 1013.7 |
| 20260902094512 | 59 | 195 | 0.0 | 0.0 | 0.00 | 0.00 | 0.00 | 93 | 1013.7 |
| 20260902094012 | 59 | 195 | 0.0 | 0.0 | 0.00 | 0.00 | 0.00 | 93 | 1013.7 |
| 20260902093511 | 59 | 195 | 0.0 | 0.0 | 0.00 | 0.00 | 0.00 | 93 | 1013.7 |
| 20260902093010 | 59 | 195 | 0.0 | 0.0 | 0.00 | 0.00 | 0.00 | 93 | 1013.7 |
| 20260902092510 | 59 | 195 | 0.0 | 0.0 | 0.00 | 0.00 | 0.00 | 93 | 1013.9 |
| 20260902092012 | 59 | 195 | 0.0 | 0.0 | 0.00 | 0.00 | 0.00 | 93 | 1013.9 |
| 20260902091510 | 59 | 195 | 0.0 | 0.0 | 0.00 | 0.00 | 0.00 | 93 | 1013.9 |
| 20260902091011 | 59 | 195 | 0.0 | 0.0 | 0.00 | 0.00 | 0.00 | 93 | 1014.0 |
| 20260902090509 | 59 | 195 | 0.0 | 0.0 | 0.00 | 0.00 | 0.00 | 93 | 1014.0 |
| 20260902090009 | 59 | 195 | 0.0 | 0.0 | 0.00 | 0.00 | 0.00 | 93 | 1014.0 |
| 20260902085508 | 59 | 195 | 0.0 | 0.0 | 0.00 | 0.00 | 0.00 | 93 | 1014.0 |
| 20260902085008 | 59 | 195 | 0.0 | 0.0 | 0.00 | 0.00 | 0.00 | 93 | 1014.0 |
| 20260902084508 | 59 | 195 | 0.0 | 0.0 | 0.00 | 0.00 | 0.00 | 93 | 1014.0 |
| 20260902084010 | 59 | 195 | 0.0 | 0.0 | 0.00 | 0.00 | 0.00 | 93 | 1014.1 |
| 20260902083511 | 59 | 195 | 0.0 | 0.0 | 0.00 | 0.00 | 0.00 | 93 | 1014.1 |
| 20260902083009 | 59 | 195 | 0.9 | 0.0 | 0.00 | 0.00 | 0.00 | 93 | 1014.1 |
| 20260902082508 | 60 | 195 | 0.9 | 0.0 | 0.00 | 0.00 | 0.00 | 93 | 1014.1 |
| 20260902082006 | 60 | 195 | 0.9 | 0.0 | 0.00 | 0.00 | 0.00 | 92 | 1014.1 |
| 20260902081506 | 60 | 195 | 0.9 | 0.0 | 0.00 | 0.00 | 0.00 | 92 | 1014.1 |
| 20260902081005 | 60 | 195 | 0.0 | 0.0 | 0.00 | 0.00 | 0.00 | 92 | 1014.1 |
| 20260902080505 | 60 | 159 | 0.0 | 0.0 | 0.00 | 0.00 | 0.00 | 92 | 1014.1 |
| 20260902080004 | 60 | 159 | 0.0 | 0.0 | 0.00 | 0.00 | 0.00 | 92 | 1014.1 |
| 20260902075504 | 60 | 159 | 0.0 | 0.0 | 0.00 | 0.00 | 0.00 | 92 | 1014.1 |
| 20260902075004 | 60 | 159 | 0.0 | 0.0 | 0.00 | 0.00 | 0.00 | 92 | 1014.1 |
| 20260902074504 | 60 | 159 | 0.0 | 0.0 | 0.00 | 0.00 | 0.00 | 92 | 1014.1 |
| 20260902074005 | 60 | 159 | 0.0 | 0.0 | 0.00 | 0.00 | 0.00 | 92 | 1013.7 |
| 20260902073503 | 60 | 159 | 0.9 | 0.0 | 0.00 | 0.00 | 0.00 | 92 | 1013.7 |
| 20260902073003 | 60 | 190 | 0.9 | 0.0 | 0.00 | 0.00 | 0.00 | 92 | 1013.7 |
| 20260902072503 | 60 | 157 | 0.9 | 0.0 | 0.00 | 0.00 | 0.00 | 92 | 1013.7 |
| 20260902072003 | 60 | 161 | 0.9 | 0.0 | 0.00 | 0.00 | 0.00 | 91 | 1013.7 |
| 20260902071502 | 60 | 169 | 0.0 | 0.0 | 0.00 | 0.00 | 0.00 | 91 | 1013.7 |
| 20260902071004 | 60 | 211 | 0.0 | 0.0 | 0.00 | 0.00 | 0.00 | 91 | 1013.7 |
| 20260902070503 | 60 | 211 | 0.9 | 0.0 | 0.00 | 0.00 | 0.00 | 91 | 1013.7 |
| 20260902070000 | 61 | 197 | 0.9 | 0.0 | 0.00 | 0.00 | 0.01 | 91 | 1013.7 |
| 20260902065603 | 61 | 196 | 0.9 | 0.0 | 0.00 | 0.00 | 0.01 | 91 | 1013.6 |
| 20260902065100 | 61 | 188 | 1.7 | 0.0 | 0.00 | 0.00 | 0.01 | 91 | 1013.6 |
| 20260902064600 | 61 | 169 | 1.7 | 0.0 | 0.00 | 0.00 | 0.01 | 91 | 1013.6 |
| 20260902064101 | 61 | 163 | 1.7 | 0.0 | 0.00 | 0.00 | 0.01 | 91 | 1013.6 |
| 20260902063559 | 61 | 178 | 1.7 | 0.0 | 0.00 | 0.00 | 0.01 | 91 | 1013.6 |
| 20260902063104 | 60 | 163 | 0.9 | 0.0 | 0.00 | 0.00 | 0.01 | 91 | 1013.6 |
| 20260902062600 | 61 | 194 | 1.7 | 0.0 | 0.00 | 0.00 | 0.01 | 91 | 1013.6 |
| 20260902062059 | 61 | 182 | 1.7 | 0.0 | 0.00 | 0.00 | 0.01 | 91 | 1013.6 |
| 20260902061613 | 61 | 234 | 1.7 | 0.0 | 0.00 | 0.00 | 0.01 | 91 | 1013.6 |
| 20260902061059 | 61 | 160 | 1.7 | 0.0 | 0.00 | 0.00 | 0.01 | 91 | 1013.6 |
| 20260902060602 | 61 | 192 | 1.7 | 0.0 | 0.00 | 0.00 | 0.01 | 90 | 1013.6 |
| 20260902060059 | 61 | 182 | 1.7 | 0.0 | 0.00 | 0.00 | 0.01 | 90 | 1013.6 |
| 20260902055603 | 61 | 196 | 1.7 | 0.0 | 0.00 | 0.00 | 0.01 | 90 | 1013.5 |
| 20260902055059 | 61 | 198 | 1.7 | 0.0 | 0.00 | 0.00 | 0.01 | 90 | 1013.5 |
| 20260902054559 | 61 | 195 | 2.6 | 0.0 | 0.00 | 0.00 | 0.01 | 90 | 1013.5 |
| 20260902054059 | 61 | 156 | 2.6 | 0.0 | 0.00 | 0.00 | 0.01 | 90 | 1013.3 |
| 20260902053601 | 61 | 169 | 2.6 | 0.0 | 0.00 | 0.00 | 0.01 | 90 | 1013.3 |
| 20260902053058 | 61 | 187 | 2.6 | 0.0 | 0.00 | 0.00 | 0.01 | 90 | 1013.3 |
| 20260902052601 | 61 | 159 | 2.6 | 0.0 | 0.00 | 0.00 | 0.01 | 89 | 1013.5 |
| 20260902052057 | 61 | 175 | 1.7 | 0.0 | 0.00 | 0.00 | 0.01 | 89 | 1013.5 |
| 20260902051600 | 61 | 186 | 1.7 | 0.0 | 0.00 | 0.00 | 0.01 | 89 | 1013.5 |
| 20260902051057 | 61 | 192 | 1.7 | 0.0 | 0.00 | 0.00 | 0.01 | 88 | 1013.6 |
| 20260902050557 | 62 | 187 | 0.9 | 0.0 | 0.00 | 0.00 | 0.01 | 88 | 1013.6 |
| 20260902050057 | 62 | 196 | 0.9 | 0.0 | 0.00 | 0.00 | 0.01 | 87 | 1013.6 |
| 20260902045601 | 62 | 167 | 1.7 | 0.0 | 0.00 | 0.00 | 0.01 | 87 | 1013.5 |
| 20260902045057 | 62 | 188 | 1.7 | 0.0 | 0.00 | 0.00 | 0.01 | 86 | 1013.5 |
| 20260902044557 | 62 | 182 | 0.9 | 0.0 | 0.00 | 0.00 | 0.01 | 86 | 1013.5 |
| 20260902044057 | 62 | 158 | 0.9 | 0.0 | 0.00 | 0.00 | 0.01 | 85 | 1013.3 |
| 20260902043558 | 62 | 198 | 1.7 | 0.0 | 0.00 | 0.00 | 0.01 | 85 | 1013.3 |
| 20260902043103 | 62 | 246 | 1.7 | 0.0 | 0.00 | 0.00 | 0.01 | 85 | 1013.3 |
| 20260902042556 | 62 | 300 | 1.7 | 0.0 | 0.00 | 0.00 | 0.01 | 85 | 1013.1 |
| 20260902042056 | 62 | 267 | 1.7 | 0.0 | 0.00 | 0.00 | 0.01 | 84 | 1013.1 |
| 20260902041555 | 62 | 301 | 2.6 | 0.0 | 0.00 | 0.00 | 0.01 | 85 | 1013.1 |
| 20260902041056 | 62 | 175 | 3.5 | 0.0 | 0.00 | 0.00 | 0.01 | 86 | 1013.0 |
| 20260902040558 | 62 | 267 | 3.5 | 0.0 | 0.00 | 0.00 | 0.01 | 88 | 1013.0 |
| 20260902040055 | 61 | 208 | 3.5 | 0.0 | 0.00 | 0.00 | 0.01 | 89 | 1013.0 |
| 20260902035556 | 61 | 236 | 2.6 | 0.0 | 0.00 | 0.00 | 0.01 | 90 | 1012.8 |
| 20260902035055 | 61 | 181 | 2.6 | 0.0 | 0.00 | 0.00 | 0.01 | 90 | 1012.8 |
| 20260902034555 | 62 | 273 | 2.6 | 0.0 | 0.00 | 0.00 | 0.01 | 90 | 1012.8 |
| 20260902034054 | 62 | 267 | 3.5 | 0.0 | 0.00 | 0.00 | 0.01 | 91 | 1012.5 |
| 20260902033554 | 62 | 262 | 3.5 | 0.0 | 0.00 | 0.00 | 0.01 | 91 | 1012.5 |
| 20260902033106 | 62 | 209 | 3.5 | 0.0 | 0.00 | 0.00 | 0.01 | 91 | 1012.5 |
| 20260902032554 | 62 | 207 | 2.6 | 0.0 | 0.00 | 0.00 | 0.01 | 91 | 1012.5 |
| 20260902032054 | 62 | 229 | 2.6 | 0.0 | 0.00 | 0.00 | 0.01 | 90 | 1012.5 |
| 20260902031554 | 62 | 281 | 3.5 | 0.0 | 0.00 | 0.00 | 0.01 | 90 | 1012.5 |
| 20260902031054 | 62 | 269 | 2.6 | 0.0 | 0.00 | 0.00 | 0.01 | 90 | 1012.4 |
| 20260902030556 | 62 | 236 | 2.6 | 0.0 | 0.00 | 0.00 | 0.01 | 90 | 1012.4 |
| 20260902030053 | 62 | 172 | 1.7 | 0.0 | 0.00 | 0.00 | 0.01 | 90 | 1012.4 |
| 20260902025554 | 62 | 198 | 2.6 | 0.0 | 0.00 | 0.00 | 0.01 | 89 | 1012.4 |
| 20260902025054 | 62 | 207 | 1.7 | 0.0 | 0.00 | 0.00 | 0.01 | 89 | 1012.4 |
| 20260902024555 | 62 | 206 | 1.7 | 0.0 | 0.00 | 0.00 | 0.01 | 88 | 1012.4 |
| 20260902024053 | 62 | 214 | 1.7 | 0.0 | 0.00 | 0.00 | 0.01 | 87 | 1012.3 |
| 20260902023552 | 62 | 189 | 0.9 | 0.0 | 0.00 | 0.00 | 0.01 | 86 | 1012.3 |
| 20260902023054 | 62 | 177 | 0.9 | 0.0 | 0.00 | 0.00 | 0.01 | 86 | 1012.3 |
| 20260902022553 | 62 | 192 | 1.7 | 0.0 | 0.00 | 0.00 | 0.01 | 85 | 1012.3 |
| 20260902022052 | 63 | 201 | 1.7 | 0.0 | 0.00 | 0.00 | 0.01 | 85 | 1012.3 |
| 20260902021557 | 63 | 209 | 1.7 | 0.0 | 0.00 | 0.00 | 0.01 | 85 | 1012.3 |
| 20260902021052 | 63 | 172 | 1.7 | 0.0 | 0.00 | 0.00 | 0.01 | 84 | 1012.4 |
| 20260902020554 | 63 | 225 | 1.7 | 0.0 | 0.00 | 0.00 | 0.01 | 84 | 1012.4 |
| 20260902020052 | 64 | 215 | 1.7 | 0.0 | 0.00 | 0.00 | 0.01 | 84 | 1012.4 |
| 20260902015556 | 64 | 181 | 1.7 | 0.0 | 0.00 | 0.00 | 0.01 | 84 | 1012.3 |
| 20260902015052 | 64 | 211 | 1.7 | 0.0 | 0.00 | 0.00 | 0.01 | 84 | 1012.3 |
| 20260902014552 | 64 | 184 | 2.6 | 0.0 | 0.00 | 0.00 | 0.01 | 84 | 1012.3 |
| 20260902014052 | 65 | 205 | 2.6 | 0.0 | 0.00 | 0.00 | 0.01 | 83 | 1012.3 |
| 20260902013551 | 65 | 214 | 1.7 | 0.0 | 0.00 | 0.00 | 0.01 | 83 | 1012.3 |
| 20260902013051 | 66 | 202 | 2.6 | 0.0 | 0.00 | 0.00 | 0.01 | 82 | 1012.3 |
| 20260902012550 | 66 | 174 | 2.6 | 0.0 | 0.00 | 0.00 | 0.01 | 81 | 1012.2 |
| 20260902012050 | 66 | 205 | 1.7 | 0.0 | 0.00 | 0.00 | 0.01 | 81 | 1012.2 |
| 20260902011551 | 67 | 233 | 1.7 | 0.0 | 0.00 | 0.00 | 0.01 | 80 | 1012.2 |
| 20260902011051 | 67 | 199 | 2.6 | 0.0 | 0.00 | 0.00 | 0.01 | 80 | 1012.4 |
| 20260902010550 | 67 | 208 | 2.6 | 0.0 | 0.00 | 0.00 | 0.01 | 80 | 1012.4 |
| 20260902010051 | 67 | 222 | 2.6 | 0.0 | 0.00 | 0.00 | 0.01 | 80 | 1012.4 |
| 20260902005550 | 67 | 215 | 2.6 | 0.0 | 0.00 | 0.00 | 0.01 | 80 | 1012.5 |
| 20260902005052 | 67 | 205 | 2.6 | 0.0 | 0.00 | 0.00 | 0.01 | 80 | 1012.5 |
| 20260902004550 | 68 | 230 | 2.6 | 0.0 | 0.00 | 0.00 | 0.01 | 79 | 1012.5 |
| 20260902004050 | 68 | 254 | 2.6 | 0.0 | 0.00 | 0.00 | 0.01 | 76 | 1012.5 |
| 20260902003549 | 68 | 231 | 2.6 | 0.0 | 0.00 | 0.00 | 0.01 | 76 | 1012.5 |
| 20260902003049 | 69 | 297 | 2.6 | 0.0 | 0.00 | 0.00 | 0.01 | 75 | 1012.5 |
| 20260902002550 | 69 | 228 | 2.6 | 0.0 | 0.00 | 0.00 | 0.01 | 75 | 1012.5 |
| 20260902002050 | 69 | 200 | 2.6 | 0.0 | 0.00 | 0.00 | 0.01 | 75 | 1012.5 |
| 20260902001549 | 70 | 209 | 2.6 | 0.0 | 0.00 | 0.00 | 0.01 | 74 | 1012.5 |
| 20260902001052 | 70 | 244 | 2.6 | 0.0 | 0.00 | 0.00 | 0.01 | 74 | 1012.6 |
| 20260902000549 | 70 | 192 | 1.7 | 0.0 | 0.00 | 0.00 | 0.01 | 72 | 1012.6 |
| 20260902000053 | 70 | 229 | 2.6 | 0.0 | 0.00 | 0.00 | 0.01 | 73 | 1012.6 |
| 20260901235549 | 70 | 252 | 3.5 | 0.0 | 0.00 | 0.00 | 0.01 | 71 | 1012.7 |
| 20260901235049 | 70 | 216 | 2.6 | 0.0 | 0.00 | 0.00 | 0.01 | 72 | 1012.7 |
| 20260901234557 | 70 | 254 | 2.6 | 0.0 | 0.00 | 0.00 | 0.01 | 73 | 1012.7 |
| 20260901234048 | 70 | 255 | 2.6 | 0.0 | 0.00 | 0.00 | 0.01 | 73 | 1012.6 |
| 20260901233548 | 71 | 227 | 2.6 | 0.0 | 0.00 | 0.00 | 0.01 | 71 | 1012.6 |
| 20260901233048 | 71 | 223 | 2.6 | 0.0 | 0.00 | 0.00 | 0.01 | 71 | 1012.6 |
| 20260901232550 | 70 | 196 | 2.6 | 0.0 | 0.00 | 0.00 | 0.01 | 66 | 1012.6 |
| 20260901232048 | 70 | 232 | 2.6 | 0.0 | 0.00 | 0.00 | 0.01 | 72 | 1012.6 |
| 20260901231548 | 70 | 215 | 2.6 | 0.0 | 0.00 | 0.00 | 0.01 | 72 | 1012.6 |
| 20260901231047 | 71 | 250 | 3.5 | 0.0 | 0.00 | 0.00 | 0.01 | 71 | 1012.7 |
| 20260901230547 | 71 | 297 | 3.5 | 0.0 | 0.00 | 0.00 | 0.01 | 71 | 1012.7 |
| 20260901230048 | 72 | 232 | 3.5 | 0.0 | 0.00 | 0.00 | 0.01 | 70 | 1012.7 |
| 20260901225546 | 72 | 240 | 4.3 | 0.0 | 0.00 | 0.00 | 0.01 | 69 | 1012.7 |
| 20260901225047 | 72 | 211 | 3.5 | 0.0 | 0.00 | 0.00 | 0.01 | 68 | 1012.7 |
| 20260901224547 | 72 | 205 | 3.5 | 0.0 | 0.00 | 0.00 | 0.01 | 65 | 1012.7 |
| 20260901224049 | 73 | 191 | 3.5 | 0.0 | 0.00 | 0.00 | 0.01 | 66 | 1012.8 |
| 20260901223546 | 72 | 166 | 3.5 | 0.0 | 0.00 | 0.00 | 0.01 | 66 | 1012.8 |
| 20260901223046 | 72 | 208 | 3.5 | 0.0 | 0.00 | 0.00 | 0.01 | 64 | 1012.8 |
| 20260901222545 | 72 | 215 | 3.5 | 0.0 | 0.00 | 0.00 | 0.01 | 65 | 1013.0 |
| 20260901222045 | 72 | 205 | 3.5 | 0.0 | 0.00 | 0.00 | 0.01 | 64 | 1013.0 |
| 20260901221614 | 72 | 186 | 3.5 | 0.0 | 0.00 | 0.00 | 0.01 | 66 | 1013.0 |
| 20260901221045 | 72 | 203 | 3.5 | 0.0 | 0.00 | 0.00 | 0.01 | 65 | 1013.1 |
| 20260901220545 | 73 | 228 | 3.5 | 0.0 | 0.00 | 0.00 | 0.01 | 64 | 1013.1 |
| 20260901220044 | 73 | 200 | 3.5 | 0.0 | 0.00 | 0.00 | 0.01 | 64 | 1013.1 |
| 20260901215543 | 73 | 198 | 3.5 | 0.0 | 0.00 | 0.00 | 0.01 | 67 | 1013.1 |
| 20260901215048 | 72 | 229 | 3.5 | 0.0 | 0.00 | 0.00 | 0.01 | 67 | 1013.1 |
| 20260901214542 | 72 | 222 | 3.5 | 0.0 | 0.00 | 0.00 | 0.01 | 68 | 1013.1 |
| 20260901214043 | 72 | 207 | 3.5 | 0.0 | 0.00 | 0.00 | 0.01 | 72 | 1013.2 |
| 20260901213541 | 72 | 156 | 3.5 | 0.0 | 0.00 | 0.00 | 0.01 | 72 | 1013.2 |
| 20260901213059 | 72 | 192 | 3.5 | 0.0 | 0.00 | 0.00 | 0.01 | 72 | 1013.2 |
| 20260901212541 | 72 | 202 | 3.5 | 0.0 | 0.00 | 0.00 | 0.01 | 71 | 1013.4 |
| 20260901212041 | 72 | 221 | 3.5 | 0.0 | 0.00 | 0.00 | 0.01 | 71 | 1013.4 |
| 20260901211545 | 72 | 165 | 2.6 | 0.0 | 0.00 | 0.00 | 0.01 | 73 | 1013.4 |
| 20260901211041 | 72 | 277 | 3.5 | 0.0 | 0.00 | 0.00 | 0.01 | 72 | 1013.4 |
| 20260901210541 | 72 | 173 | 4.3 | 0.0 | 0.00 | 0.00 | 0.01 | 72 | 1013.4 |
| 20260901210041 | 72 | 201 | 3.5 | 0.0 | 0.00 | 0.00 | 0.01 | 72 | 1013.4 |
| 20260901205542 | 72 | 212 | 3.5 | 0.0 | 0.00 | 0.00 | 0.01 | 72 | 1013.6 |
| 20260901205039 | 72 | 171 | 3.5 | 0.0 | 0.00 | 0.00 | 0.01 | 71 | 1013.6 |
| 20260901204540 | 73 | 194 | 2.6 | 0.0 | 0.00 | 0.00 | 0.01 | 71 | 1013.6 |
| 20260901204039 | 73 | 198 | 2.6 | 0.0 | 0.00 | 0.00 | 0.01 | 71 | 1013.6 |
| 20260901203538 | 72 | 244 | 2.6 | 0.0 | 0.00 | 0.00 | 0.01 | 72 | 1013.6 |
| 20260901203044 | 72 | 168 | 2.6 | 0.0 | 0.00 | 0.00 | 0.01 | 72 | 1013.6 |
| 20260901202537 | 72 | 202 | 2.6 | 0.0 | 0.00 | 0.00 | 0.01 | 75 | 1013.9 |
| 20260901202038 | 72 | 213 | 2.6 | 0.0 | 0.00 | 0.00 | 0.01 | 74 | 1013.9 |
| 20260901201537 | 72 | 234 | 2.6 | 0.0 | 0.00 | 0.00 | 0.01 | 74 | 1013.9 |
| 20260901201036 | 72 | 159 | 2.6 | 0.0 | 0.00 | 0.00 | 0.01 | 75 | 1014.1 |
| 20260901200534 | 71 | 123 | 2.6 | 0.0 | 0.00 | 0.00 | 0.01 | 75 | 1014.1 |
| 20260901200043 | 71 | 218 | 2.6 | 0.0 | 0.00 | 0.00 | 0.01 | 74 | 1014.1 |
| 20260901195536 | 71 | 255 | 2.6 | 0.0 | 0.00 | 0.00 | 0.01 | 76 | 1014.2 |
| 20260901195038 | 71 | 185 | 2.6 | 0.0 | 0.00 | 0.00 | 0.01 | 74 | 1014.2 |
| 20260901194532 | 71 | 221 | 2.6 | 0.0 | 0.00 | 0.00 | 0.01 | 74 | 1014.2 |
| 20260901194032 | 70 | 190 | 2.6 | 0.0 | 0.00 | 0.00 | 0.01 | 76 | 1014.3 |
| 20260901193531 | 70 | 180 | 2.6 | 0.0 | 0.00 | 0.00 | 0.01 | 76 | 1014.3 |
| 20260901193031 | 70 | 165 | 2.6 | 0.0 | 0.00 | 0.00 | 0.01 | 76 | 1014.3 |
| 20260901192530 | 71 | 153 | 2.6 | 0.0 | 0.00 | 0.00 | 0.01 | 77 | 1014.3 |
| 20260901192032 | 71 | 148 | 2.6 | 0.0 | 0.00 | 0.00 | 0.01 | 77 | 1014.3 |
| 20260901191528 | 70 | 209 | 2.6 | 0.0 | 0.00 | 0.00 | 0.01 | 78 | 1014.3 |
| 20260901191030 | 70 | 233 | 2.6 | 0.0 | 0.00 | 0.00 | 0.01 | 79 | 1014.4 |
| 20260901190526 | 70 | 161 | 2.6 | 0.0 | 0.00 | 0.00 | 0.01 | 78 | 1014.4 |
| 20260901190026 | 70 | 135 | 2.6 | 0.0 | 0.00 | 0.00 | 0.01 | 79 | 1014.4 |
| 20260901185527 | 69 | 167 | 2.6 | 0.0 | 0.00 | 0.00 | 0.01 | 79 | 1014.3 |
| 20260901185025 | 69 | 180 | 2.6 | 0.0 | 0.00 | 0.00 | 0.01 | 79 | 1014.3 |
| 20260901184531 | 69 | 179 | 2.6 | 0.0 | 0.00 | 0.00 | 0.01 | 79 | 1014.3 |
| 20260901184024 | 69 | 188 | 2.6 | 0.0 | 0.00 | 0.00 | 0.01 | 79 | 1014.4 |
| 20260901183523 | 69 | 159 | 1.7 | 0.0 | 0.00 | 0.00 | 0.01 | 79 | 1014.4 |
| 20260901183022 | 69 | 155 | 1.7 | 0.0 | 0.00 | 0.00 | 0.01 | 79 | 1014.4 |
| 20260901182521 | 69 | 167 | 1.7 | 0.0 | 0.00 | 0.00 | 0.01 | 80 | 1014.3 |
| 20260901182021 | 68 | 192 | 1.7 | 0.0 | 0.00 | 0.00 | 0.01 | 80 | 1014.3 |
| 20260901181520 | 68 | 173 | 2.6 | 0.0 | 0.00 | 0.00 | 0.01 | 81 | 1014.3 |
| 20260901181018 | 68 | 186 | 2.6 | 0.0 | 0.00 | 0.00 | 0.01 | 81 | 1014.4 |
| 20260901180518 | 68 | 196 | 2.6 | 0.0 | 0.00 | 0.00 | 0.01 | 81 | 1014.4 |
| 20260901180018 | 68 | 161 | 2.6 | 0.0 | 0.00 | 0.00 | 0.01 | 81 | 1014.4 |
| 20260901175517 | 68 | 208 | 1.7 | 0.0 | 0.00 | 0.00 | 0.01 | 82 | 1014.5 |
| 20260901175017 | 68 | 202 | 1.7 | 0.0 | 0.00 | 0.00 | 0.01 | 83 | 1014.5 |
| 20260901174516 | 67 | 146 | 2.6 | 0.0 | 0.00 | 0.00 | 0.01 | 83 | 1014.5 |